This demonstration page uses our WeatherBlox Daily Observations layout. Learn more.

Left ArrowRight Arrow

Hourly Observations for September 30, 2019

Temp ( °F °C ) Dew Point ( °F °C ) Humidity (%) Winds ( mph kmh ) Pressure ( in mb ) Visibility ( mi km ) Precip ( " mm )
12:53 am 00:53 Clear 72 22.2 68 20 87 87 Calm 30.15 1021 10 16 0.00 0.00
1:53 am 01:53 Clear 72 22.2 68 20 87 87 Calm 30.14 1021 10 16 0.00 0.00
2:53 am 02:53 Clear 70 21.1 67 19.4 90 90 Calm 30.14 1021 10 16 0.00 0.00
3:53 am 03:53 Clear 70 21.1 67 19.4 90 90 Calm 30.13 1020 10 16 0.00 0.00
4:53 am 04:53 Clear 70 21.1 67 19.4 90 90 Calm 30.13 1020 10 16 0.00 0.00
5:53 am 05:53 Clear 69 20.6 66 18.9 90 90 Calm 30.14 1021 10 16 0.00 0.00
6:53 am 06:53 Clear 68 20 66 18.9 93 93 Calm 30.15 1021 9 14 0.00 0.00
7:53 am 07:53 Sunny 68 20 65 18.3 90 90 Calm 30.16 1021 9 14 0.00 0.00
8:53 am 08:53 Sunny 73 22.8 68 20 84 84 Calm 30.17 1022 10 16 0.00 0.00
9:53 am 09:53 Sunny 80 26.7 68 20 67 67 Calm 30.18 1022 10 16 0.00 0.00
10:53 am 10:53 Sunny 86 30 68 20 55 55 Calm 30.18 1022 10 16 0.00 0.00
11:53 am 11:53 Sunny 89 31.7 66 18.9 47 47 VRB 3 6 30.17 1022 10 16 0.00 0.00
12:53 pm 12:53 Sunny 92 33.3 64 17.8 40 40 VRB 5 7 30.16 1021 10 16 0.00 0.00
1:53 pm 13:53 Mostly Sunny 92 33.3 62 16.7 37 37 VRB 3 6 30.13 1020 10 16 0.00 0.00
2:53 pm 14:53 Sunny 94 34.4 61 16.1 33 33 Calm 30.11 1020 10 16 0.00 0.00
3:53 pm 15:53 Mostly Sunny 95 35 62 16.7 34 34 VRB 3 6 30.08 1019 10 16 0.00 0.00
4:53 pm 16:53 Sunny 94 34.4 62 16.7 35 35 NW 6 9 30.06 1018 10 16 0.00 0.00
5:53 pm 17:53 Sunny 94 34.4 63 17.2 36 36 NNW 5 7 30.06 1018 10 16 0.00 0.00
6:53 pm 18:53 Sunny 92 33.3 65 18.3 41 41 Calm 30.06 1018 10 16 0.00 0.00
7:53 pm 19:53 Clear 83 28.3 67 19.4 59 59 NE 3 6 30.06 1018 7 11 0.00 0.00
8:53 pm 20:53 Clear 80 26.7 69 20.6 69 69 Calm 30.06 1018 10 16 0.00 0.00
9:53 pm 21:53 Clear 77 25 69 20.6 77 77 Calm 30.07 1018 10 16 0.00 0.00
10:53 pm 22:53 Clear 75 23.9 68 20 79 79 Calm 30.08 1019 10 16 0.00 0.00
11:53 pm 23:53 Clear 75 23.9 68 20 79 79 Calm 30.08 1019 10 16 0.00 0.00

Powered by AerisWeather